{"data":{"norad_id":67243,"intl_designator":"2025-311H","name":"HULIANWANG DIGUI-135","alt_names":[],"object_type":"PAYLOAD","status":"ACTIVE","operator":null,"country":"PRC","launch_date":"2025-12-25","launch_site_code":"WSC","launch_vehicle":null,"mission":null,"orbit_class":"UNKNOWN","rcs_meters":null,"size_class":null,"mass_kg":null,"dimensions":null,"purposes":[],"wikipedia_slug":null,"has_3d_model":false,"image_url":null,"decayed_at":null,"tle_current":{"epoch":"2026-09-20T22:34:16.804992Z","epoch_age_seconds":64964,"freshness":"FRESH","line1":"1 67243U 25311H   26263.94047228 -.00000107  00000+0  36519-4 0  9995","line2":"2 67243  50.0010 132.4590 0000178 337.4464  22.6401 13.29327088 36075","mean_motion":13.29327088,"eccentricity":1.78e-5,"inclination_deg":50.001,"raan_deg":132.459,"arg_perigee_deg":337.4464,"mean_anomaly_deg":22.6401,"bstar":3.6519e-5,"rev_number":3607,"period_min":108.32548384811,"perigee_km":1149.1684761604,"apogee_km":1149.4364530053,"semimajor_km":7527.4394645829,"source":"CELESTRAK","updated_at":"2026-09-21T09:00:16.509851Z"}}}